[Date Prev][Date Next][Thread Prev][Thread Next] - [Date Index][Thread Index][Author Index]
2 Line ISS Keps 8-25
- Subject: [sarex] 2 Line ISS Keps 8-25
- From: "Dave Larsen PhD" <doc@xxxxxxxxxxx>
- Date: Wed, 25 Aug 2004 05:09:10 -0700
ISS
1 25544U 98067A 04238.47150318 .00017530 00000-0 14427-3 0 5281
2 25544 51.6334 332.0107 0007957 132.2026 332.2769 15.70468964329202
----
Via the sarex mailing list at AMSAT.ORG courtesy of AMSAT-NA.
To unsubscribe, send "unsubscribe sarex" to Majordomo@amsat.org
AMSAT Home